| time (UTC) | temp F | wind direction | speed MPH | gust MPH | rain 1hr in | rain 24hr in | rain mn in | humidity % | barometer mb |
| 20260906023704 | 90 | 104 | 1.0 | 2.0 | 0.00 | 0.00 | 0.00 | 52 | 1014.3 |
| 20260906023204 | 90 | 103 | 1.0 | 2.0 | 0.00 | 0.00 | 0.00 | 52 | 1014.1 |
| 20260906020704 | 91 | 103 | 1.0 | 2.0 | 0.00 | 0.00 | 0.00 | 50 | 1013.8 |
| 20260906020204 | 91 | 103 | 1.0 | 3.0 | 0.00 | 0.00 | 0.00 | 50 | 1013.7 |
| 20260906010704 | 93 | 103 | 0.0 | 0.0 | 0.00 | 0.00 | 0.00 | 49 | 1013.4 |
| 20260906010203 | 94 | 103 | 0.0 | 1.0 | 0.00 | 0.00 | 0.00 | 48 | 1013.4 |
| 20260906003703 | 96 | 103 | 0.0 | 2.0 | 0.00 | 0.00 | 0.00 | 43 | 1013.2 |
| 20260906000704 | 98 | 120 | 2.0 | 3.0 | 0.00 | 0.00 | 0.00 | 41 | 1013.3 |
| 20260906000205 | 98 | 129 | 3.0 | 10.0 | 0.00 | 0.00 | 0.00 | 40 | 1013.2 |
| 20260905223703 | 100 | 155 | 3.0 | 6.0 | 0.00 | 0.00 | 0.00 | 39 | 1012.8 |
| 20260905220705 | 100 | 226 | 2.0 | 3.0 | 0.00 | 0.00 | 0.00 | 38 | 1012.9 |
| 20260905220204 | 100 | 122 | 3.0 | 15.0 | 0.00 | 0.00 | 0.00 | 39 | 1012.9 |
| 20260905213704 | 101 | 149 | 2.0 | 3.0 | 0.00 | 0.00 | 0.00 | 39 | 1013.2 |
| 20260905213204 | 100 | 144 | 5.0 | 12.0 | 0.00 | 0.00 | 0.00 | 40 | 1013.2 |
| 20260905210703 | 100 | 139 | 7.0 | 12.0 | 0.00 | 0.00 | 0.00 | 39 | 1013.6 |
| 20260905210204 | 100 | 136 | 4.0 | 10.0 | 0.00 | 0.00 | 0.00 | 39 | 1013.7 |
| 20260905203203 | 100 | 74 | 4.0 | 12.0 | 0.00 | 0.00 | 0.00 | 39 | 1014.0 |
| 20260905200703 | 99 | 161 | 3.0 | 6.0 | 0.00 | 0.00 | 0.00 | 41 | 1014.5 |
| 20260905200204 | 99 | 145 | 5.0 | 10.0 | 0.00 | 0.00 | 0.00 | 42 | 1014.5 |
| 20260905193704 | 99 | 170 | 3.0 | 8.0 | 0.00 | 0.00 | 0.00 | 42 | 1014.8 |
| 20260905193204 | 99 | 144 | 2.0 | 9.0 | 0.00 | 0.00 | 0.00 | 42 | 1014.9 |
| 20260905183702 | 98 | 143 | 1.0 | 5.0 | 0.00 | 0.00 | 0.00 | 45 | 1015.6 |
| 20260905183202 | 97 | 132 | 3.0 | 9.0 | 0.00 | 0.00 | 0.00 | 46 | 1015.7 |
| 20260905180702 | 97 | 121 | 4.0 | 8.0 | 0.00 | 0.00 | 0.00 | 44 | 1016.1 |
| 20260905180202 | 98 | 141 | 3.0 | 12.0 | 0.00 | 0.00 | 0.00 | 46 | 1016.1 |
| 20260905173702 | 97 | 232 | 2.0 | 3.0 | 0.00 | 0.00 | 0.00 | 47 | 1016.3 |
| 20260905173202 | 97 | 215 | 3.0 | 12.0 | 0.00 | 0.00 | 0.00 | 48 | 1016.4 |
| 20260905170703 | 96 | 130 | 2.0 | 5.0 | 0.00 | 0.00 | 0.00 | 49 | 1016.5 |
| 20260905170203 | 96 | 125 | 1.0 | 12.0 | 0.00 | 0.00 | 0.00 | 49 | 1016.5 |
| 20260905163702 | 95 | 233 | 2.0 | 3.0 | 0.00 | 0.00 | 0.00 | 50 | 1016.8 |
| 20260905163202 | 95 | 251 | 1.0 | 7.0 | 0.00 | 0.00 | 0.00 | 50 | 1016.9 |
| 20260905160702 | 93 | 212 | 2.0 | 3.0 | 0.00 | 0.00 | 0.00 | 54 | 1016.9 |
| 20260905160202 | 93 | 265 | 1.0 | 5.0 | 0.00 | 0.00 | 0.00 | 54 | 1016.9 |
| 20260905153703 | 92 | 161 | 2.0 | 7.0 | 0.00 | 0.00 | 0.00 | 57 | 1016.8 |
| 20260905153203 | 92 | 203 | 1.0 | 5.0 | 0.00 | 0.00 | 0.00 | 58 | 1016.8 |
| 20260905150702 | 90 | 179 | 2.0 | 3.0 | 0.00 | 0.00 | 0.00 | 60 | 1016.6 |
| 20260905150203 | 89 | 205 | 2.0 | 6.0 | 0.00 | 0.00 | 0.00 | 61 | 1016.6 |
| 20260905143704 | 87 | 194 | 1.0 | 5.0 | 0.00 | 0.00 | 0.00 | 64 | 1016.4 |
| 20260905143202 | 87 | 196 | 2.0 | 7.0 | 0.00 | 0.00 | 0.00 | 64 | 1016.4 |
| 20260905140702 | 84 | 167 | 1.0 | 3.0 | 0.00 | 0.00 | 0.00 | 70 | 1016.4 |
| 20260905140203 | 84 | 167 | 1.0 | 6.0 | 0.00 | 0.00 | 0.00 | 70 | 1016.3 |
| 20260905133702 | 81 | 148 | 3.0 | 6.0 | 0.00 | 0.00 | 0.00 | 73 | 1016.3 |
| 20260905133203 | 80 | 168 | 1.0 | 5.0 | 0.00 | 0.00 | 0.00 | 73 | 1016.3 |
| 20260905130703 | 78 | 156 | 2.0 | 3.0 | 0.00 | 0.00 | 0.00 | 75 | 1016.2 |
| 20260905130203 | 78 | 155 | 3.0 | 6.0 | 0.00 | 0.00 | 0.00 | 75 | 1016.2 |
| 20260905123203 | 76 | 114 | 2.0 | 3.0 | 0.00 | 0.00 | 0.00 | 77 | 1015.9 |
| 20260905120704 | 76 | 144 | 1.0 | 3.0 | 0.00 | 0.00 | 0.00 | 77 | 1015.8 |
| 20260905113203 | 77 | 144 | 0.0 | 2.0 | 0.00 | 0.00 | 0.00 | 75 | 1015.6 |
| 20260905110703 | 78 | 144 | 0.0 | 1.0 | 0.00 | 0.00 | 0.00 | 74 | 1015.5 |
| 20260905110202 | 78 | 144 | 1.0 | 2.0 | 0.00 | 0.00 | 0.00 | 74 | 1015.5 |
| 20260905103203 | 78 | 144 | 0.0 | 2.0 | 0.00 | 0.00 | 0.00 | 74 | 1015.5 |
| 20260905100702 | 78 | 144 | 1.0 | 2.0 | 0.00 | 0.00 | 0.00 | 73 | 1015.4 |
| 20260905100203 | 78 | 144 | 1.0 | 2.0 | 0.00 | 0.00 | 0.00 | 72 | 1015.5 |
| 20260905093702 | 79 | 144 | 0.0 | 0.0 | 0.00 | 0.00 | 0.00 | 71 | 1015.5 |
| 20260905093203 | 79 | 144 | 0.0 | 2.0 | 0.00 | 0.00 | 0.00 | 71 | 1015.5 |
| 20260905090203 | 80 | 144 | 0.0 | 2.0 | 0.00 | 0.00 | 0.00 | 70 | 1015.4 |
| 20260905083703 | 79 | 144 | 1.0 | 2.0 | 0.00 | 0.00 | 0.00 | 71 | 1015.4 |
| 20260905080703 | 81 | 144 | 0.0 | 0.0 | 0.00 | 0.00 | 0.00 | 68 | 1015.1 |
| 20260905080204 | 81 | 143 | 0.0 | 2.0 | 0.00 | 0.00 | 0.00 | 68 | 1015.1 |
| 20260905073702 | 82 | 143 | 1.0 | 2.0 | 0.00 | 0.00 | 0.00 | 67 | 1015.1 |
| 20260905073202 | 82 | 143 | 1.0 | 2.0 | 0.00 | 0.00 | 0.00 | 67 | 1015.1 |
| 20260905070702 | 83 | 143 | 0.0 | 1.0 | 0.00 | 0.00 | 0.00 | 65 | 1015.2 |
| 20260905070203 | 83 | 143 | 1.0 | 2.0 | 0.00 | 0.00 | 0.00 | 65 | 1015.3 |
| 20260905063703 | 84 | 143 | 1.0 | 3.0 | 0.00 | 0.00 | 0.00 | 63 | 1015.1 |
| 20260905060703 | 85 | 161 | 1.0 | 3.0 | 0.00 | 0.00 | 0.00 | 61 | 1015.3 |
| 20260905060203 | 85 | 162 | 2.0 | 5.0 | 0.00 | 0.00 | 0.00 | 61 | 1015.2 |
| 20260905053702 | 86 | 161 | 1.0 | 2.0 | 0.00 | 0.00 | 0.00 | 60 | 1015.1 |
| 20260905053202 | 86 | 161 | 1.0 | 5.0 | 0.00 | 0.00 | 0.00 | 60 | 1015.2 |
| 20260905043702 | 87 | 145 | 3.0 | 6.0 | 0.00 | 0.00 | 0.00 | 59 | 1015.3 |
| 20260905043202 | 87 | 160 | 2.0 | 7.0 | 0.00 | 0.00 | 0.00 | 58 | 1015.3 |
| 20260905040703 | 88 | 155 | 4.0 | 5.0 | 0.00 | 0.00 | 0.00 | 58 | 1015.2 |
| 20260905033703 | 88 | 156 | 2.0 | 6.0 | 0.00 | 0.00 | 0.00 | 58 | 1015.1 |
| 20260905030702 | 89 | 140 | 3.0 | 8.0 | 0.00 | 0.00 | 0.00 | 57 | 1014.7 |
| 20260905030203 | 89 | 145 | 2.0 | 7.0 | 0.00 | 0.00 | 0.00 | 56 | 1014.6 |